Location: Helsinki
(60.1699°N, 24.9384°E)
Time: 22:16:29
(UTC+02:00)

Transit 2A - Visible Passes

Search period start: 28 October 2020 00:00
Search period end: 07 November 2020 00:00
Orbit: 593 x 966 km, 66.7° (Epoch: 27 October)

Date Brightness Start Highest point End Pass type
(mag) Time Alt. Az. Time Alt. Az. Time Alt. Az.
28 Oct 7.8 02:07:07 32° ENE 02:07:07 32° ENE 02:10:31 10° NE visible
28 Oct 6.3 03:47:37 70° NW 03:47:51 71° NNW 03:53:53 10° NE visible
28 Oct 6.9 05:28:06 22° WNW 05:31:54 47° N 05:37:31 10° ENE visible
29 Oct 8.3 01:34:01 22° ENE 01:34:01 22° ENE 01:36:16 10° NE visible
29 Oct 6.6 03:14:30 66° NNE 03:14:30 66° NNE 03:19:41 10° NE visible
29 Oct 6.9 04:55:00 32° WNW 04:57:33 48° NNW 05:03:13 10° ENE visible
29 Oct 6.9 06:35:49 10° WNW 06:41:48 49° NNE 06:47:16 10° E visible
30 Oct 8.8 01:00:53 15° ENE 01:00:53 15° ENE 01:01:59 10° ENE visible
30 Oct 7.2 02:41:23 47° NE 02:41:23 47° NE 02:45:29 10° NE visible
30 Oct 6.8 04:21:52 44° NW 04:23:11 51° NNW 04:28:56 10° ENE visible
30 Oct 6.9 06:02:22 14° WNW 06:07:26 47° N 06:12:54 10° E visible
31 Oct 7.9 02:08:14 32° ENE 02:08:14 32° ENE 02:11:17 10° NE visible
31 Oct 6.6 03:48:44 56° NNW 03:48:52 56° NNW 03:54:41 10° ENE visible
31 Oct 7.0 05:29:13 21° WNW 05:33:04 46° N 05:38:33 10° ENE visible
01 Nov 8.4 01:35:06 22° ENE 01:35:06 22° ENE 01:37:05 10° NE visible
01 Nov 6.9 03:15:35 54° NNE 03:15:35 54° NNE 03:20:27 10° NE visible
01 Nov 7.0 04:56:04 29° NW 04:58:42 45° N 05:04:12 10° ENE visible
01 Nov 6.6 06:36:51 10° NW 06:42:51 59° NNE 06:48:17 10° ESE visible
02 Nov 8.8 01:01:57 15° NE 01:01:57 15° NE 01:02:53 10° NE visible
02 Nov 7.4 02:42:26 41° NE 02:42:26 41° NE 02:46:14 10° NE visible
02 Nov 6.9 04:22:55 39° NW 04:24:20 46° N 04:29:53 10° ENE visible
02 Nov 6.8 06:03:25 14° NW 06:08:33 54° NNE 06:13:58 10° E visible
03 Nov 8.0 02:09:17 29° NE 02:09:17 29° NE 02:12:02 10° NE visible
03 Nov 6.9 03:49:46 48° NNW 03:49:58 48° N 03:55:34 10° ENE visible
03 Nov 6.9 05:30:16 21° NW 05:34:13 50° NNE 05:39:37 10° E visible
04 Nov 8.5 01:36:08 20° NE 01:36:08 20° NE 01:37:50 10° NE visible
04 Nov 7.1 03:16:38 46° NNE 03:16:38 46° NNE 03:21:17 10° ENE visible
04 Nov 6.9 04:57:07 29° NW 04:59:52 47° N 05:05:15 10° E visible
04 Nov 6.3 06:37:46 10° NW 06:43:46 79° NNE 06:49:09 10° ESE visible
05 Nov 8.9 01:03:00 13° NE 01:03:00 13° NE 01:03:38 10° NE visible
05 Nov 7.6 02:43:29 36° NE 02:43:29 36° NE 02:47:02 10° ENE visible
05 Nov 7.0 04:23:58 38° NNW 04:25:29 46° N 04:30:54 10° ENE visible
05 Nov 6.4 06:04:28 15° NW 06:09:32 69° NNE 06:14:54 10° ESE visible
06 Nov 8.2 02:10:21 26° NE 02:10:21 26° NE 02:12:47 10° NE visible
06 Nov 7.0 03:50:51 45° N 03:51:07 45° N 03:56:33 10° ENE visible
06 Nov 6.6 05:31:20 21° NW 05:35:15 60° NNE 05:40:37 10° ESE visible
